{"data":{"norad_id":52370,"intl_designator":"2022-045AR","name":"STARLINK-3827","alt_names":[],"object_type":"PAYLOAD","status":"ACTIVE","operator":null,"country":"US","launch_date":"2022-04-29","launch_site_code":"AFETR","launch_vehicle":null,"mission":null,"orbit_class":"UNKNOWN","rcs_meters":null,"size_class":null,"mass_kg":null,"dimensions":null,"purposes":["comms"],"wikipedia_slug":null,"has_3d_model":false,"image_url":null,"decayed_at":null,"tle_current":{"epoch":"2026-05-24T21:09:30.933792Z","epoch_age_seconds":95794,"freshness":"FRESH","line1":"1 52370U 22045AR  26144.88160803 -.00000048  00000+0  15037-4 0  9993","line2":"2 52370  53.2135 207.0933 0000958  82.9850 277.1251 15.08835579227429","mean_motion":15.08835579,"eccentricity":9.58e-5,"inclination_deg":53.2135,"raan_deg":207.0933,"arg_perigee_deg":82.985,"mean_anomaly_deg":277.1251,"bstar":1.5037e-5,"rev_number":22742,"period_min":95.43783431687,"perigee_km":539.09416798962,"apogee_km":540.41963646128,"semimajor_km":6917.8939022255,"source":"CELESTRAK","updated_at":"2026-05-25T13:38:17.120754Z"}}}